SIRIUSSAT 1

Last updated on Mon Oct 22 2018 00:00:45 GMT+0000 (Coordinated Universal Time)

1 43595U 98067PG 18294.59009894 .00007834 00000-0 11888-3 0 9995 2 43595 51.6379 108.2613 0003237 282.2214 77.8415 15.55625040 10406
UTC large
Height (km)
Speed (km/s)
/
Latitude / Longitude
Inclination (degrees)
Orbital Period (minutes)
Azimuth
Elevation
Range (km)
Doppler Factor

Next 0 passes for location: London (51.5072 / 0.1276)

Sorry there are no passes over London.